STARLINK-2112, 47391

Orbit data source: Space-Track

STARLINK-2112, 47391 is a payload satellite owned by SpaceX/Seattle (US) in LEO that was launched on Wed, 20 Jan 2021 UTC via an FALCON 9 launch vehicle from the Air Force Eastern Test Range (AFETR). Payload-class satellites include a variety of spacecraft equipped with specific instruments for various scientific and technological missions. These include communications satellites like Starlink; space stations such as the ISS; scientific satellites like the Hubble; Earth observation satellites from companies like Planet Labs, Umbra, and HawkEye 360; GPS; miniature CubeSats for education and research; and military/defense satellites.

Loading next visibility...
Identifier
47391, 2021-005AU
Orbit
LEO
Country
Flag of USUS
Related business
Manufacturer
SpaceX/Seattle
Mission
Operational Commercial Communications
Bus & Motor
STARLINK, Unknown motor
Mass
260 kg wet, ~248 kg dry
Launch date (UTC)
2021-01-20 (5 years ago)
Launch vehicle
FALCON 9
Launch site
Air Force Eastern Test Range (AFETR)
Object type
Payload
Rocket body
Debris
Shape & HBR
Box + 1 Pan, 10.1 m
Radar Cross Section
13.562 m², Large (>1 m²)

Expand to show TLE details & history
Last TLE update: 2 days ago

TLE from 2 days ago
0 STARLINK-2112
1 47391U 21005AU  26171.33993503  .00016771  00000-0  97524-3 0  9996
2 47391  53.0675 288.5882 0000593 318.6732  41.4214 15.12192033298967
Epoch: 2026-06-20T08:09Z
TLE epoch observation values (Epoch: 2026-06-20T08:09:30.386Z)
Latitude
-0.00009°
Longitude
-102.34444°
Altitude
530.092 km
Speed
7.599 km/s
True Right ascension
19h 14m 21s
True Declination
0° 00' 00"
Sunlit
Object was in full shadow at epoch
Visualization orbit readout
Latitude
Unknown
Longitude
Unknown
Altitude
Unknown
Speed
Unknown
Apparent Right ascension
Unknown
Apparent Declination
Unknown
Sunlit
N/A
Visualization observer readout
Local Sidereal Time
00:34:40
Azimuth
Unknown
Elevation
Unknown
Doppler factor
Unknown
Orbital elements
Apogee altitude
530.195 km
Perigee altitude
529.376 km
Semi-major axis
6,907.923 km
Eccentricity
0.00006
Inclination
53.0675°
RAAN
288.5882°
Arg. of periapsis
318.6732°
True anomaly
41.4259°
Mean anomaly
41.4214°
Eccentric anomaly
41.42365°
Mean motion
3.78026 °/min
Orbital period
95.23 mins
BSTAR
0.00097524
Loading maneuver chart data...
Computing Atmospheric mass density...

Documentation

Showing up to 5 results
|